Scappoose, OR

3:42 AM PST on February 08, 2016 (GMT -0800)
Scappoose Industrial

Weather History for KSPB - December, 2013

Change the Weather History Date:

Wednesday, December 11, 2013

  Actual Average Record
Temperature  
Mean Temperature 28 °F -  
Max Temperature 32 °F - 61 °F (2014)
Min Temperature 25 °F - 24 °F (2005)
Degree Days  
Heating Degree Days 36    
Month to date heating degree days 403  
Since 1 July heating degree days 1601  
Cooling Degree Days 0    
Month to date cooling degree days 0  
Year to date cooling degree days 396  
Moisture  
Dew Point 26 °F    
Average Humidity 92    
Maximum Humidity 100    
Minimum Humidity 84    
Precipitation  
Precipitation 0.00 in - 1.12 in (2010)
Month to date precipitation 0.97  
Year to date precipitation 26.70  
Sea Level Pressure  
Sea Level Pressure 30.32 in    
Wind  
Wind Speed 1 mph (WSW)    
Max Wind Speed 6 mph    
Max Gust Speed 8 mph    
Visibility 2 miles    
Events Fog    
T = Trace of Precipitation, MM = Missing Value Source: NWS Daily Summary

Daily Weather History Graph

Daily Weather History Graph

Search for Another Location

Airport or City:

Trip Planner

Search our weather history database for the weather conditions in past years. The results will help you decide how hot, cold, wet, or windy it might be!

Date:

Astronomy

Dec. 11, 2013 Rise Set
Actual Time 7:42 AM PST 4:26 PM PST
Civil Twilight 7:08 AM PST 5:01 PM PST
Nautical Twilight 6:30 AM PST 5:38 PM PST
Astronomical Twilight 5:54 AM PST 6:15 PM PST
Moon 1:16 PM PST (12/11) 1:55 AM PST (12/11)
Length of Visible Light 9h 52m
Length of Day
8h 44m
Waxing Gibbous, 72% of the Moon is Illuminated
Dec 11
Waxing Gibbous
Dec 17
Full
Dec 25
Last Quarter
Jan 1
New
Jan 7
First Quarter

Hourly Weather History & Observations

Time (PST) Temp. Windchill Dew Point Humidity Pressure Visibility Wind Dir Wind Speed Gust Speed Precip Events Conditions
12:53 AM 28.0 °F - 27.0 °F 96% 30.41 in 0.2 mi Calm Calm - N/A Fog Light Freezing Fog
1:51 AM 28.4 °F - 26.6 °F 93% 30.40 in 0.5 mi Calm Calm - N/A Fog Light Freezing Fog
1:53 AM 28.0 °F 24.2 °F 26.1 °F 92% 30.40 in 0.5 mi West 3.5 mph - N/A Fog Light Freezing Fog
2:14 AM 28.0 °F - 27.0 °F 96% 30.40 in 0.2 mi Calm Calm - N/A Fog Light Freezing Fog
2:53 AM 28.0 °F - 26.1 °F 92% 30.40 in 0.2 mi Calm Calm - N/A Fog Light Freezing Fog
3:36 AM 28.0 °F 24.2 °F 26.1 °F 92% 30.38 in 0.5 mi West 3.5 mph - N/A Fog Light Freezing Fog
3:53 AM 28.0 °F 24.2 °F 26.1 °F 92% 30.39 in 0.5 mi West 3.5 mph - N/A Fog Light Freezing Fog
4:39 AM 27.0 °F 23.0 °F 25.0 °F 92% 30.37 in 0.8 mi WSW 3.5 mph - N/A   Mist
4:53 AM 27.0 °F 23.0 °F 25.0 °F 92% 30.37 in 0.5 mi WSW 3.5 mph - N/A Fog Light Freezing Fog
5:53 AM 26.1 °F - 25.0 °F 96% 30.36 in 0.5 mi Calm Calm - N/A Fog Light Freezing Fog
6:00 AM 26.1 °F 21.9 °F 24.1 °F 92% 30.36 in 0.2 mi WSW 3.5 mph - N/A Fog Light Freezing Fog
6:53 AM 26.1 °F 21.9 °F 24.1 °F 92% 30.37 in 0.5 mi WSW 3.5 mph - N/A Fog Light Freezing Fog
7:48 AM 26.6 °F - 24.8 °F 93% 30.36 in 0.2 mi Calm Calm - N/A Fog Light Freezing Fog
7:53 AM 27.0 °F 23.0 °F 25.0 °F 92% 30.37 in 0.2 mi WSW 3.5 mph - N/A Fog Light Freezing Fog
8:53 AM 28.0 °F - 26.1 °F 92% 30.37 in 0.2 mi Calm Calm - N/A Fog Light Freezing Fog
9:53 AM 28.9 °F - 27.0 °F 92% 30.38 in 0.2 mi Calm Calm - N/A Fog Light Freezing Fog
10:23 AM 30.0 °F - 27.0 °F 88% 30.38 in - Calm Calm - N/A   Unknown
10:32 AM 30.0 °F - 27.0 °F 88% 30.37 in 0.2 mi Calm Calm - N/A Fog Light Freezing Fog
10:53 AM 30.0 °F - 28.0 °F 92% 30.37 in 0.2 mi Calm Calm - N/A Fog Light Freezing Fog
11:04 AM 30.0 °F - 28.0 °F 92% 30.37 in 0.2 mi Calm Calm - N/A Fog Light Freezing Fog
11:11 AM 30.0 °F - 28.0 °F 92% 30.37 in 0.5 mi Calm Calm - N/A Fog Light Freezing Fog
11:36 AM 30.0 °F - 28.0 °F 92% 30.35 in 0.8 mi Calm Calm - N/A   Overcast
11:48 AM 30.2 °F - 28.4 °F 93% 30.35 in 1.5 mi Calm Calm - N/A   Overcast
11:53 AM 30.0 °F - 27.0 °F 88% 30.35 in 2.0 mi Calm Calm - N/A   Overcast
12:00 PM 30.0 °F - 28.0 °F 92% 30.34 in 1.0 mi Calm Calm - N/A   Overcast
12:07 PM 30.9 °F 27.5 °F 28.0 °F 89% 30.33 in 0.5 mi SSE 3.5 mph - N/A Fog Light Freezing Fog
12:51 PM 30.2 °F 24.3 °F 28.4 °F 93% 30.32 in 2.0 mi SE 5.8 mph - N/A   Overcast
12:53 PM 30.9 °F 26.2 °F 27.0 °F 85% 30.32 in 1.8 mi SE 4.6 mph - N/A   Overcast
1:06 PM 30.9 °F - 28.0 °F 89% 30.32 in 0.8 mi Calm Calm - N/A   Overcast
1:15 PM 30.0 °F 26.5 °F 28.0 °F 92% 30.31 in 1.5 mi ESE 3.5 mph - N/A   Overcast
1:25 PM 30.9 °F - 28.0 °F 89% 30.31 in 2.5 mi Calm Calm - N/A   Overcast
1:39 PM 30.9 °F - 28.0 °F 89% 30.30 in 3.0 mi Calm Calm - N/A   Overcast
1:53 PM 30.9 °F - 28.0 °F 89% 30.31 in 5.0 mi Calm Calm - N/A   Scattered Clouds
2:24 PM 32.0 °F - 28.9 °F 88% 30.29 in 4.0 mi Calm Calm - N/A   Mostly Cloudy
2:46 PM 32.0 °F - 28.9 °F 88% 30.29 in 5.0 mi Calm Calm - N/A   Scattered Clouds
2:53 PM 32.0 °F 28.7 °F 28.9 °F 88% 30.29 in 6.0 mi North 3.5 mph - N/A   Partly Cloudy
3:13 PM 32.0 °F - 30.0 °F 92% 30.28 in 4.0 mi Calm Calm - N/A   Mostly Cloudy
3:45 PM 30.9 °F - 28.9 °F 92% 30.28 in 4.0 mi Calm Calm - N/A   Scattered Clouds
3:53 PM 30.9 °F - 28.9 °F 92% 30.27 in 4.0 mi Calm Calm - N/A   Partly Cloudy
4:53 PM 28.9 °F 25.2 °F 27.0 °F 92% 30.27 in 3.0 mi WNW 3.5 mph - N/A   Clear
5:13 PM 28.0 °F - 26.1 °F 92% 30.26 in 2.0 mi Calm Calm - N/A   Clear
5:33 PM 27.0 °F - 25.0 °F 92% 30.26 in 3.0 mi Calm Calm - N/A   Clear
5:53 PM 28.0 °F - 25.0 °F 88% 30.26 in 4.0 mi Calm Calm - N/A   Clear
6:53 PM 25.0 °F - 23.0 °F 92% 30.25 in 4.0 mi Calm Calm - N/A   Clear
7:53 PM 25.0 °F - 23.0 °F 92% 30.24 in 5.0 mi Calm Calm - N/A   Clear
8:10 PM 26.1 °F - 23.0 °F 88% 30.24 in 4.0 mi Calm Calm - N/A   Scattered Clouds
8:15 PM 26.1 °F - 23.0 °F 88% 30.24 in 2.5 mi Calm Calm - N/A   Mostly Cloudy
8:23 PM 26.1 °F - 23.0 °F 88% 30.24 in 3.0 mi Calm Calm - N/A   Mostly Cloudy
8:28 PM 26.1 °F - 23.0 °F 88% 30.24 in 0.8 mi Calm Calm - N/A   Mist
8:53 PM 26.1 °F - 24.1 °F 92% 30.24 in 0.2 mi Calm Calm - N/A Fog Light Freezing Fog
9:12 PM 25.0 °F - 23.0 °F 92% 30.23 in 0.5 mi Calm Calm - N/A Fog Light Freezing Fog
9:19 PM 26.1 °F - 24.1 °F 92% 30.23 in 1.2 mi Calm Calm - N/A   Scattered Clouds
9:22 PM 26.1 °F - 24.1 °F 92% 30.23 in 3.0 mi Calm Calm - N/A   Partly Cloudy
9:53 PM 26.1 °F - 23.0 °F 88% 30.23 in 6.0 mi Calm Calm - N/A   Clear
10:53 PM 26.1 °F 20.5 °F 24.1 °F 92% 30.23 in 10.0 mi SW 4.6 mph - N/A   Clear
11:53 PM 26.1 °F - 23.0 °F 88% 30.22 in 10.0 mi Calm Calm - N/A   Clear